RH
45 46 47 48 51 54 57 59 62 64 66 66 64 61 59 57 56 54 52 49 47 46 44 42 39 37 34 32 30 29 28 28 28 28 29 29 30 31 33 35 35 34 32 28 27 27 27 28 27 26 26 27 30 33 36 39 41 42 43 44 43 42 40 39 38 37 39 43 51
46 47 48 49 51 53 55 56 58 60 61 61 61 59 58 57 56 54 52 50 49 47 46 44 42 39 36 34 32 30 30 29 29 30 30 30 31 32 33 35 37 37 37 34 30 28 27 27 28 27 26 26 28 30 33 37 39 41 43 44 45 45 43 40 39 37 37 39 48
47 47 49 50 53 56 59 61 62 62 62 62 61 59 58 58 58 57 55 54 53 52 51 49 45 41 38 35 33 31 30 30 30 30 31 32 33 34 35 37 39 39 40 39 36 32 28 26 27 27 27 26 26 28 31 34 37 40 42 43 46 47 46 42 39 38 38 38 44
47 48 48 49 51 53 55 57 57 57 57 56 56 56 57 57 57 57 57 56 55 53 51 48 44 41 38 36 33 32 30 30 30 31 32 33 35 37 39 42 42 42 42 41 38 35 31 28 27 26 27 27 26 27 28 31 34 37 40 42 45 46 47 44 41 39 38 38 41
47 47 48 48 49 49 48 47 46 45 44 44 44 45 45 46 47 48 49 49 49 48 46 44 42 40 37 35 34 32 31 30 30 31 33 35 38 41 45 47 46 44 42 40 38 36 33 30 28 26 26 26 26 26 27 29 32 35 38 41 43 44 45 45 43 41 39 38 39
48 48 48 49 50 50 51 51 50 50 49 48 48 47 46 45 45 44 44 44 43 42 41 40 39 38 37 35 34 33 32 31 31 32 33 37 41 45 48 49 47 44 42 39 37 35 33 31 30 29 27 26 26 26 27 28 30 33 36 39 41 42 43 44 45 43 42 39 38
56 55 53 52 52 51 51 50 50 50 50 49 49 49 48 47 47 46 46 45 44 44 43 42 42 41 40 39 38 37 36 35 35 35 37 39 44 47 50 50 49 46 43 39 37 34 33 31 33 33 33 30 27 26 25 26 28 31 34 38 40 42 43 43 44 45 44 42 39
67 66 64 62 60 59 57 56 54 53 52 51 50 48 47 47 48 48 48 48 48 48 48 48 47 47 46 46 46 45 44 44 43 43 43 44 46 48 50 51 51 49 46 42 39 37 34 32 33 36 39 39 34 30 27 26 27 29 32 36 38 40 41 42 43 45 46 45 42
72 71 70 70 69 68 67 67 66 65 64 62 59 57 56 55 54 54 54 53 52 51 51 50 49 49 49 49 50 50 50 50 50 50 50 50 50 50 51 53 53 52 50 46 42 40 37 34 33 36 40 44 42 38 34 31 29 29 30 34 36 39 40 41 41 43 45 48 45
76 75 74 73 72 72 72 73 74 75 75 75 72 69 67 64 63 61 60 58 57 55 53 51 49 49 49 49 49 50 51 52 52 53 53 53 53 53 54 55 55 54 52 48 44 41 38 35 34 36 40 45 47 46 44 40 37 34 33 33 35 37 39 40 40 41 43 46 46
78 79 79 78 77 76 76 76 76 77 78 79 78 77 76 74 72 70 68 67 66 65 63 60 59 58 57 56 56 55 55 55 55 55 55 55 55 55 55 56 56 56 54 51 46 42 40 36 35 36 39 45 50 52 51 48 45 42 38 36 36 37 39 40 40 40 40 41 44
75 78 81 83 83 83 82 82 81 80 79 79 78 79 79 80 79 79 78 76 76 75 74 72 72 72 71 70 70 69 68 67 65 63 62 61 59 57 55 54 56 57 57 54 49 44 41 38 36 35 37 43 50 53 54 54 52 48 44 42 41 40 40 41 41 39 38 38 42
67 72 76 81 83 85 86 86 85 83 82 81 80 79 79 79 79 79 80 80 80 79 78 78 79 79 79 79 79 79 78 78 77 76 75 73 69 64 59 55 57 60 61 59 55 50 45 40 37 34 35 38 47 52 55 55 55 53 49 47 46 45 43 43 41 39 37 37 41
60 64 67 72 77 81 84 86 86 85 85 84 83 82 81 80 79 78 79 80 80 80 79 79 80 80 80 81 82 82 82 82 81 82 82 83 81 78 72 66 62 62 64 64 63 60 55 47 41 36 33 33 41 48 54 55 55 54 53 51 50 48 45 43 41 39 37 37 41
57 58 60 63 67 71 75 79 82 84 85 87 86 85 84 83 81 80 80 80 81 81 82 82 82 81 81 81 82 82 82 82 83 83 84 86 86 85 83 78 72 67 65 66 67 66 64 58 50 43 36 32 34 40 48 53 54 54 53 52 50 47 44 42 41 40 38 37 41
55 55 56 57 59 61 64 67 71 74 79 84 86 88 88 87 85 84 83 82 82 83 85 86 86 86 85 84 83 83 83 84 84 85 86 87 88 87 86 84 81 76 72 68 68 69 69 66 59 50 41 34 32 33 38 45 50 52 52 51 49 45 42 41 42 41 40 38 41
54 54 54 54 55 55 56 58 60 64 68 74 80 85 89 89 88 88 87 86 86 86 87 87 87 87 87 87 87 87 86 86 87 87 87 88 87 87 86 86 86 84 81 78 74 72 71 70 63 54 45 37 33 31 31 34 40 44 47 47 46 43 40 39 42 45 45 41 40
53 53 53 53 53 54 54 55 56 57 60 64 69 76 83 89 90 90 89 89 89 89 88 88 87 87 88 88 88 88 88 88 88 88 87 86 85 86 86 87 87 87 86 85 82 78 75 72 65 56 48 41 37 33 31 29 31 34 37 39 39 38 37 37 43 48 51 47 42
50 50 51 51 52 53 53 54 55 55 56 58 61 65 71 80 86 89 90 90 90 89 88 88 88 88 89 89 89 89 89 89 89 88 87 86 86 85 85 85 86 86 86 85 84 82 79 73 65 58 52 48 46 43 40 35 31 29 30 31 32 33 33 34 40 46 50 48 43
42 43 44 45 47 48 50 52 53 54 55 56 56 58 62 67 76 83 88 90 90 89 88 86 86 87 88 89 90 90 90 90 89 89 88 87 86 85 84 82 81 79 78 78 79 77 73 66 61 59 58 59 57 55 52 49 42 35 30 28 29 29 30 30 35 39 42 42 41
32 33 34 36 38 40 43 45 48 50 52 53 55 55 57 59 65 72 80 87 89 89 88 87 85 85 86 87 89 89 89 89 89 89 88 88 87 87 85 83 79 77 75 74 74 72 68 63 60 60 62 65 66 63 59 56 52 45 37 29 28 28 28 28 30 33 35 35 38
23 24 26 27 29 31 33 35 38 40 42 45 47 50 52 54 58 63 70 78 85 88 88 88 87 86 86 86 87 88 89 89 89 90 90 90 89 88 87 84 81 80 79 81 81 81 79 74 70 67 67 68 70 68 63 59 56 51 43 32 28 28 29 30 31 31 31 32 38
16 18 19 20 22 23 24 26 27 29 30 32 35 37 40 43 47 53 59 67 75 82 87 89 89 89 88 88 88 89 90 90 90 90 90 90 90 89 88 87 86 85 85 86 86 87 88 87 83 79 74 70 68 66 64 61 60 55 47 34 29 29 33 37 38 37 35 32 37
9 11 13 15 17 18 19 20 21 22 23 23 25 26 28 30 33 38 43 50 60 70 80 87 89 90 90 90 89 90 90 90 89 89 89 89 89 88 88 88 87 86 87 88 86 86 86 88 86 82 77 71 66 63 61 61 60 56 47 35 30 31 36 42 44 43 39 34 35
5 6 7 9 11 13 14 16 17 19 20 20 21 22 22 22 24 26 29 33 40 50 61 73 82 87 90 90 88 87 87 88 89 89 88 87 87 87 87 87 87 88 89 89 88 88 86 85 82 79 75 69 66 64 62 60 56 50 43 36 32 33 36 41 43 43 39 33 31
5 5 5 5 6 8 9 11 13 15 16 18 19 19 20 21 21 21 22 23 26 31 38 48 60 71 80 86 87 87 86 86 87 88 88 87 87 87 87 88 89 89 90 89 88 88 86 84 81 78 74 70 67 64 61 59 55 49 42 36 33 33 34 37 38 37 35 31 29
5 5 5 5 5 5 6 7 8 9 11 13 15 17 18 19 20 20 20 20 21 22 24 27 34 44 54 65 74 79 83 84 86 86 87 88 87 88 88 89 89 90 90 90 89 88 86 84 82 78 74 70 65 61 57 54 52 48 43 37 34 32 31 32 33 33 32 32 31
6 6 6 5 5 5 5 5 6 6 7 9 11 13 14 16 18 19 19 19 19 19 20 20 22 26 31 38 47 56 64 70 74 79 82 86 87 87 87 88 89 90 90 91 90 90 89 87 84 81 76 71 65 60 55 51 49 47 45 41 39 35 32 30 30 30 30 31 31
7 7 6 6 6 5 5 5 5 5 5 6 7 9 10 12 14 16 17 18 19 20 20 20 20 20 22 25 30 37 45 53 58 63 69 76 82 86 88 87 88 88 89 89 90 90 90 90 88 85 81 76 72 67 62 57 53 52 52 51 47 43 38 36 34 32 31 31 32
7 7 7 7 6 6 6 5 5 5 5 5 6 6 7 8 10 12 14 16 18 20 21 21 21 20 20 21 23 28 34 42 49 54 58 62 69 77 84 88 88 89 89 89 90 91 91 91 90 88 84 79 77 75 72 68 64 62 62 61 56 52 49 47 45 43 41 39 38
8 8 8 7 7 7 6 6 5 5 5 5 5 5 5 6 8 10 12 13 16 19 21 22 21 21 21 20 21 22 26 32 41 48 54 56 60 65 72 79 85 89 90 90 90 91 91 91 90 88 85 82 78 76 75 73 71 69 67 65 62 60 58 56 55 54 53 51 50
9 9 8 8 8 7 7 7 6 6 5 5 5 5 5 5 7 8 9 10 12 16 19 20 20 20 21 21 21 21 22 25 31 39 48 54 56 58 61 67 74 81 86 89 90 90 90 90 90 90 90 90 87 84 81 78 77 75 73 71 68 68 67 62 59 59 59 59 58
11 10 10 10 9 9 9 8 8 7 7 6 6 6 5 5 5 6 6 7 9 13 17 19 19 20 21 21 21 22 22 23 25 31 38 47 53 55 56 58 62 68 75 82 86 88 89 88 87 87 87 88 90 90 89 86 84 83 82 81 78 75 72 67 64 62 61 60 60
14 14 13 13 12 12 11 11 10 9 9 8 8 7 7 6 6 6 6 6 8 11 14 17 19 21 21 20 20 21 22 22 23 25 30 38 47 52 54 55 56 58 62 69 76 81 86 87 87 87 87 87 88 89 90 90 89 88 88 88 88 85 81 77 72 69 67 65 64
18 17 17 16 16 15 15 14 14 13 13 13 12 11 11 10 9 9 8 7 8 10 12 15 18 21 21 19 18 18 19 21 21 23 25 30 38 46 51 54 54 55 55 57 63 70 77 83 86 87 87 88 88 89 89 90 90 90 90 90 91 91 89 86 81 77 73 71 70
20 20 19 19 18 18 17 17 16 16 16 17 17 17 16 15 13 12 10 8 8 9 10 12 15 17 18 17 17 17 17 18 19 20 22 25 31 38 46 52 54 54 54 53 55 59 66 73 80 85 87 88 88 89 89 89 90 91 91 90 90 90 90 90 88 83 79 77 75
21 20 20 19 19 18 18 17 17 17 18 19 20 21 20 19 19 17 14 11 10 10 10 11 12 14 15 16 17 17 16 17 16 17 18 20 25 32 39 46 51 54 55 54 53 54 57 63 71 79 85 87 88 89 89 89 90 90 91 91 89 89 89 89 88 84 81 79 77
20 20 19 18 18 18 17 17 17 17 17 19 20 21 22 21 22 21 19 16 14 13 12 11 12 12 13 13 15 15 15 16 15 14 15 16 19 25 31 38 46 51 54 55 54 53 54 56 62 70 78 84 87 89 90 90 90 90 91 91 90 88 87 87 86 83 79 77 76
19 18 18 17 17 17 17 17 16 16 17 18 20 21 21 21 22 23 22 20 18 16 15 13 12 12 11 11 12 12 13 14 14 14 13 13 15 18 22 29 37 45 50 54 55 55 54 54 56 61 68 77 83 87 90 91 91 91 91 91 90 87 84 82 80 79 77 74 73
17 16 16 16 16 16 16 16 16 16 16 17 19 20 20 20 22 23 23 21 20 19 18 16 14 12 11 10 11 11 11 12 13 13 13 13 13 14 16 21 28 36 43 50 54 55 56 55 55 56 60 66 74 81 87 90 90 90 90 90 88 86 82 78 76 75 74 73 73
15 15 14 14 15 15 15 15 15 15 15 16 18 19 20 19 20 22 23 22 21 21 20 19 16 14 13 11 11 11 10 11 12 12 13 14 13 13 13 15 20 26 34 43 50 54 56 57 56 56 56 58 64 72 80 87 89 90 90 89 89 87 85 81 77 74 72 72 73